When you browse on this site, cookies collect data to enhance your experience and personalize the content and advertising you see.
Visit our Privacy Policy to learn more. By continuing to use the site, you agree to this use of cookies and data.
  • în România
  • Lista ţărilor
  • Pe 7 zile
  • Temperatura apei
  • Hartă satelitară
  • Meteo pe hartă
  • Widget-uri
  • user-avatar
    Intrare

    Meteo pe oră la Linz

    Astăzi, 22 Februarie, Vineri

    Timp Temperatura Precipitaţii Vânt Presiune Umiditate
    00:00 +5°C° 0 mm 3 m/s 741 mmHg 92%
    01:00 +4°C° 0 mm 3 m/s 741 mmHg 93%
    02:00 +5°C° 0.2 mm 3 m/s 740 mmHg 93%
    03:00 +5°C° 0.2 mm 4 m/s 740 mmHg 92%
    04:00 +6°C° 0.2 mm 5 m/s 740 mmHg 92%
    05:00 +6°C° 1.1 mm 5 m/s 740 mmHg 91%
    06:00 +6°C° 1.1 mm 5 m/s 740 mmHg 91%
    07:00 +6°C° 0 mm 5 m/s 740 mmHg 90%
    08:00 +6°C° 0.6 mm 4 m/s 740 mmHg 89%
    09:00 +6°C° 0.6 mm 4 m/s 741 mmHg 87%
    10:00 +7°C° 0.6 mm 4 m/s 741 mmHg 85%
    11:00 +7°C° 0.3 mm 4 m/s 742 mmHg 82%
    12:00 +8°C° 0.3 mm 4 m/s 742 mmHg 78%
    13:00 +8°C° 0.3 mm 4 m/s 743 mmHg 75%
    14:00 +8°C° 0.2 mm 4 m/s 743 mmHg 73%
    15:00 +8°C° 0.2 mm 4 m/s 744 mmHg 72%
    16:00 +7°C° 0.2 mm 4 m/s 744 mmHg 71%
    17:00 +6°C° 0 mm 4 m/s 745 mmHg 73%
    18:00 +4°C° 0 mm 3 m/s 746 mmHg 76%
    19:00 +2°C° 0 mm 3 m/s 746 mmHg 79%
    20:00 +2°C° 0 mm 2 m/s 747 mmHg 76%
    21:00 +1°C° 0 mm 2 m/s 748 mmHg 74%
    22:00 -1°C° 0 mm 2 m/s 748 mmHg 72%
    23:00 -1°C° 0 mm 2 m/s 749 mmHg 71%

    Mâine, 23 Februarie, Sâmbătă

    Timp Temperatura Precipitaţii Vânt Presiune Umiditate
    00:00 -2°C° 0 mm 2 m/s 749 mmHg 69%
    01:00 -2°C° 0 mm 2 m/s 750 mmHg 68%
    02:00 -2°C° 0 mm 2 m/s 750 mmHg 67%
    03:00 -3°C° 0 mm 2 m/s 750 mmHg 67%
    04:00 -3°C° 0 mm 2 m/s 750 mmHg 66%
    05:00 -3°C° 0 mm 2 m/s 750 mmHg 64%
    06:00 -3°C° 0 mm 2 m/s 751 mmHg 63%
    07:00 -3°C° 0 mm 2 m/s 751 mmHg 61%
    08:00 -2°C° 0 mm 2 m/s 751 mmHg 52%
    09:00 -2°C° 0 mm 2 m/s 751 mmHg 44%
    10:00 -1°C° 0 mm 3 m/s 751 mmHg 35%
    11:00 0°C° 0 mm 3 m/s 750 mmHg 33%
    12:00 +1°C° 0 mm 3 m/s 750 mmHg 31%
    13:00 +2°C° 0 mm 3 m/s 750 mmHg 28%
    14:00 +2°C° 0 mm 3 m/s 750 mmHg 29%
    15:00 +2°C° 0 mm 3 m/s 749 mmHg 30%
    16:00 +2°C° 0 mm 3 m/s 749 mmHg 32%
    17:00 +2°C° 0 mm 2 m/s 749 mmHg 37%
    18:00 +1°C° 0 mm 2 m/s 750 mmHg 42%
    19:00 -2°C° 0 mm 2 m/s 750 mmHg 47%
    20:00 -2°C° 0 mm 2 m/s 750 mmHg 47%
    21:00 -2°C° 0 mm 2 m/s 750 mmHg 48%
    22:00 -2°C° 0 mm 2 m/s 750 mmHg 48%
    23:00 -2°C° 0 mm 2 m/s 750 mmHg 47%

    Poimâine, 24 Februarie, Duminică

    Timp Temperatura Precipitaţii Vânt Presiune Umiditate
    00:00 -2°C° 0 mm 2 m/s 750 mmHg 47%
    01:00 -2°C° 0 mm 2 m/s 750 mmHg 46%
    02:00 -3°C° 0 mm 2 m/s 750 mmHg 46%
    03:00 -3°C° 0 mm 2 m/s 749 mmHg 45%
    04:00 -3°C° 0 mm 2 m/s 749 mmHg 45%
    05:00 -3°C° 0 mm 2 m/s 749 mmHg 44%
    06:00 -1°C° 0 mm 1 m/s 749 mmHg 43%
    07:00 -1°C° 0 mm 1 m/s 749 mmHg 42%
    08:00 -1°C° 0 mm 2 m/s 749 mmHg 37%
    09:00 +2°C° 0 mm 2 m/s 749 mmHg 33%
    10:00 +3°C° 0 mm 2 m/s 749 mmHg 28%
    11:00 +5°C° 0 mm 2 m/s 749 mmHg 27%
    12:00 +6°C° 0 mm 2 m/s 749 mmHg 26%
    13:00 +7°C° 0 mm 2 m/s 749 mmHg 25%
    14:00 +7°C° 0 mm 2 m/s 748 mmHg 30%
    15:00 +8°C° 0 mm 1 m/s 748 mmHg 35%
    16:00 +8°C° 0 mm 1 m/s 748 mmHg 40%
    17:00 +6°C° 0 mm 1 m/s 749 mmHg 44%
    18:00 +5°C° 0 mm 1 m/s 749 mmHg 48%
    19:00 +3°C° 0 mm 1 m/s 749 mmHg 52%
    20:00 +3°C° 0 mm 1 m/s 750 mmHg 53%
    21:00 +2°C° 0 mm 1 m/s 750 mmHg 55%
    22:00 +2°C° 0 mm 1 m/s 750 mmHg 56%
    23:00 +2°C° 0 mm 1 m/s 750 mmHg 57%

    25 Februarie, Luni

    Timp Temperatura Precipitaţii Vânt Presiune Umiditate
    00:00 +2°C° 0 mm 1 m/s 750 mmHg 57%
    01:00 +2°C° 0 mm 1 m/s 750 mmHg 58%
    02:00 +2°C° 0 mm 1 m/s 750 mmHg 58%
    03:00 +2°C° 0 mm 1 m/s 749 mmHg 59%
    04:00 +2°C° 0 mm 1 m/s 749 mmHg 59%
    05:00 +2°C° 0 mm 1 m/s 749 mmHg 60%
    06:00 +2°C° 0 mm 1 m/s 749 mmHg 61%
    07:00 +2°C° 0 mm 1 m/s 750 mmHg 62%
    08:00 +4°C° 0 mm 1 m/s 750 mmHg 58%
    09:00 +6°C° 0 mm 1 m/s 750 mmHg 54%
    10:00 +8°C° 0 mm 1 m/s 750 mmHg 50%
    11:00 +9°C° 0 mm 1 m/s 749 mmHg 50%
    12:00 +11°C° 0 mm 1 m/s 749 mmHg 49%
    13:00 +12°C° 0 mm 1 m/s 749 mmHg 49%
    14:00 +12°C° 0 mm 1 m/s 748 mmHg 52%
    15:00 +11°C° 0 mm 0 m/s 748 mmHg 55%
    16:00 +11°C° 0 mm 0 m/s 748 mmHg 57%
    17:00 +10°C° 0 mm 1 m/s 748 mmHg 62%
    18:00 +9°C° 0 mm 1 m/s 748 mmHg 67%
    19:00 +7°C° 0 mm 1 m/s 749 mmHg 72%
    20:00 +6°C° 0 mm 1 m/s 749 mmHg 73%
    21:00 +5°C° 0 mm 1 m/s 749 mmHg 75%
    22:00 +5°C° 0 mm 1 m/s 749 mmHg 76%
    23:00 +4°C° 0 mm 1 m/s 749 mmHg 77%

    26 Februarie, Marţi

    Timp Temperatura Precipitaţii Vânt Presiune Umiditate
    00:00 +4°C° 0 mm 1 m/s 749 mmHg 77%
    01:00 +4°C° 0 mm 1 m/s 748 mmHg 78%
    02:00 +4°C° 0 mm 1 m/s 748 mmHg 78%
    03:00 +3°C° 0 mm 1 m/s 748 mmHg 78%
    04:00 +3°C° 0 mm 1 m/s 747 mmHg 77%
    05:00 +3°C° 0 mm 1 m/s 747 mmHg 77%
    06:00 +3°C° 0 mm 1 m/s 747 mmHg 76%
    07:00 +3°C° 0 mm 1 m/s 747 mmHg 75%
    08:00 +5°C° 0 mm 1 m/s 746 mmHg 68%
    09:00 +7°C° 0 mm 1 m/s 746 mmHg 61%
    10:00 +9°C° 0 mm 1 m/s 746 mmHg 55%
    11:00 +11°C° 0 mm 1 m/s 746 mmHg 51%
    12:00 +12°C° 0 mm 1 m/s 745 mmHg 48%
    13:00 +13°C° 0 mm 1 m/s 745 mmHg 45%
    14:00 +13°C° 0 mm 1 m/s 745 mmHg 48%
    15:00 +14°C° 0 mm 2 m/s 744 mmHg 51%
    16:00 +14°C° 0 mm 2 m/s 744 mmHg 53%
    17:00 +12°C° 0 mm 2 m/s 744 mmHg 59%
    18:00 +9°C° 0 mm 2 m/s 745 mmHg 65%
    19:00 +7°C° 0 mm 2 m/s 745 mmHg 70%
    20:00 +7°C° 0 mm 2 m/s 745 mmHg 72%
    21:00 +6°C° 0 mm 2 m/s 745 mmHg 73%
    22:00 +6°C° 0 mm 2 m/s 745 mmHg 75%
    23:00 +6°C° 0 mm 2 m/s 745 mmHg 74%

    27 Februarie, Miercuri

    Timp Temperatura Precipitaţii Vânt Presiune Umiditate
    00:00 +6°C° 0 mm 2 m/s 745 mmHg 74%
    01:00 +7°C° 0 mm 2 m/s 745 mmHg 73%
    02:00 +6°C° 0 mm 2 m/s 744 mmHg 73%
    03:00 +6°C° 0 mm 2 m/s 744 mmHg 73%
    04:00 +6°C° 0 mm 2 m/s 744 mmHg 74%
    05:00 +7°C° 0 mm 1 m/s 744 mmHg 74%
    06:00 +7°C° 0 mm 1 m/s 744 mmHg 74%
    07:00 +7°C° 0 mm 1 m/s 744 mmHg 75%
    08:00 +8°C° 0 mm 1 m/s 744 mmHg 71%
    09:00 +9°C° 0 mm 1 m/s 743 mmHg 68%
    10:00 +10°C° 0 mm 1 m/s 743 mmHg 65%
    11:00 +11°C° 0 mm 1 m/s 743 mmHg 60%
    12:00 +12°C° 0 mm 1 m/s 742 mmHg 56%
    13:00 +13°C° 0 mm 2 m/s 742 mmHg 51%
    14:00 +14°C° 0 mm 1 m/s 741 mmHg 52%
    15:00 +14°C° 0 mm 1 m/s 741 mmHg 53%
    16:00 +14°C° 0 mm 1 m/s 741 mmHg 54%
    17:00 +13°C° 0 mm 1 m/s 740 mmHg 59%
    18:00 +11°C° 0 mm 1 m/s 740 mmHg 64%
    19:00 +10°C° 0 mm 1 m/s 740 mmHg 69%
    20:00 +9°C° 0 mm 1 m/s 740 mmHg 72%
    21:00 +9°C° 0 mm 1 m/s 740 mmHg 74%
    22:00 +8°C° 0 mm 1 m/s 739 mmHg 76%
    23:00 +8°C° 0 mm 1 m/s 739 mmHg 77%
    Arată mai mult